INSAT-3D

Last updated on Aug. 15, 2020, 5:34 a.m. UTC

1 39216U 13038B   20227.43382814 -.00000156  00000-0  00000-0 0  9995
2 39216   0.0714 277.8107 0001103 243.8021  39.9946  1.00272149 25724
UTC
Height (km)
Latitude
Longitude
Inclination
Orbital Period
UTC large
Height (km)
Speed (km/s)
/
Latitude / Longitude
Inclination (degrees)
Orbital Period (minutes)
Azimuth
Elevation
Range (km)
Doppler Factor
iOS Compass Heading
iOS Angle

Next 30 passes for location: Hong Kong

Rise time Rise Azimuth (degrees) Set time Set Azimuth (degrees) Duration Max altitude (degrees)

No matching passes for this satellites